{"data":{"norad_id":60111,"epoch":"2026-09-21T05:33:21.002976Z","epoch_age_seconds":114385,"freshness":"FRESH","line1":"1 60111U 24117W   26264.23149309 -.00000697  00000+0 -94972-5 0  9994","line2":"2 60111  53.1591 206.0936 0001338  85.1376 274.9779 15.34386090126863","mean_motion":15.3438609,"eccentricity":0.0001338,"inclination_deg":53.1591,"raan_deg":206.0936,"arg_perigee_deg":85.1376,"mean_anomaly_deg":274.9779,"bstar":-9.4972e-6,"rev_number":12686,"period_min":93.848608859586,"perigee_km":461.8292740149,"apogee_km":463.65989392677,"semimajor_km":6840.8815839708,"source":"CELESTRAK","updated_at":"2026-09-22T09:00:49.153993Z"}}